SDM5996 UWKD-UUEE

Flight info

Callsign SDM5996
Flight time N/A
Altitude 36000
Route APTAR L158 DIMGI
Aircraft A320/M-SDE3FGHIRWY/LB1

Departure

Time 2026-04-28 18:56
Airport Kazan International Airport (UWKD)

Arrival

Time N/A
Airport Sheremetyevo International Airport (UUEE)
Time Latitude Longitude Altitude Speed Heading
2026-04-28 18:21 55.60761 49.29823 420 ft 0 kts 34°
2026-04-28 18:43 55.60758 49.29820 420 ft 2 kts 34°
2026-04-28 18:43 55.60745 49.29805 419 ft 2 kts 33°
2026-04-28 18:44 55.60732 49.29789 419 ft 2 kts 32°
2026-04-28 18:44 55.60710 49.29765 420 ft 2 kts 18°
2026-04-28 18:44 55.60696 49.29759 419 ft 2 kts 18°
2026-04-28 18:45 55.60681 49.29750 419 ft 2 kts 18°
2026-04-28 18:45 55.60667 49.29742 420 ft 2 kts 18°
2026-04-28 18:45 55.60652 49.29733 420 ft 1 kts 18°
2026-04-28 18:45 55.60646 49.29729 420 ft 1 kts 33°
2026-04-28 18:46 55.60645 49.29728 420 ft 0 kts 33°
2026-04-28 18:48 55.60646 49.29729 419 ft 0 kts 32°
2026-04-28 18:50 55.60654 49.29739 419 ft 3 kts 34°
2026-04-28 18:50 55.60686 49.29758 419 ft 4 kts 356°
2026-04-28 18:50 55.60722 49.29714 419 ft 7 kts 306°
2026-04-28 18:51 55.60752 49.29639 419 ft 8 kts 304°
2026-04-28 18:51 55.60790 49.29541 419 ft 10 kts 304°
2026-04-28 18:51 55.60811 49.29449 419 ft 8 kts 256°
2026-04-28 18:51 55.60765 49.29367 419 ft 11 kts 214°
2026-04-28 18:52 55.60692 49.29278 419 ft 11 kts 214°
2026-04-28 18:52 55.60630 49.29203 419 ft 11 kts 217°
2026-04-28 18:52 55.60582 49.29098 419 ft 12 kts 251°
2026-04-28 18:52 55.60582 49.28915 419 ft 16 kts 274°
2026-04-28 18:53 55.60558 49.28779 419 ft 11 kts 218°
2026-04-28 18:53 55.60491 49.28696 420 ft 6 kts 214°
2026-04-28 18:53 55.60469 49.28669 419 ft 2 kts 214°
2026-04-28 18:53 55.60468 49.28668 419 ft 0 kts 214°
2026-04-28 18:54 55.60468 49.28667 419 ft 0 kts 214°
2026-04-28 18:54 55.60461 49.28660 419 ft 3 kts 214°
2026-04-28 18:54 55.60418 49.28608 419 ft 7 kts 214°
2026-04-28 18:54 55.60383 49.28529 419 ft 13 kts 250°
2026-04-28 18:55 55.60432 49.28368 419 ft 35 kts 307°
2026-04-28 18:55 55.60598 49.27961 420 ft 86 kts 301°
2026-04-28 18:55 55.61282 49.26178 423 ft 168 kts 303°
2026-04-28 18:55 55.62006 49.24354 800 ft 188 kts 303°
2026-04-28 18:56 55.62774 49.22405 1373 ft 201 kts 303°
2026-04-28 18:56 55.63536 49.20264 2000 ft 211 kts 291°
2026-04-28 18:56 55.63618 49.17601 2428 ft 230 kts 249°
2026-04-28 18:56 55.62673 49.15335 3242 ft 233 kts 222°
2026-04-28 18:57 55.61542 49.13245 3943 ft 241 kts 241°
2026-04-28 18:57 55.61174 49.10329 4533 ft 252 kts 278°
2026-04-28 18:57 55.61642 49.07332 5428 ft 253 kts 289°
2026-04-28 18:57 55.62194 49.04361 6246 ft 257 kts 287°
2026-04-28 18:58 55.62665 49.01310 7043 ft 261 kts 284°
2026-04-28 18:58 55.63065 48.98119 7843 ft 265 kts 282°
2026-04-28 18:58 55.63406 48.94887 8611 ft 269 kts 281°
2026-04-28 18:58 55.63713 48.91569 9366 ft 273 kts 280°
2026-04-28 18:59 55.63995 48.88250 10092 ft 277 kts 279°
2026-04-28 18:59 55.64271 48.84810 10814 ft 281 kts 279°
2026-04-28 18:59 55.64536 48.81387 11421 ft 289 kts 279°
2026-04-28 18:59 55.64811 48.77741 11766 ft 306 kts 278°
2026-04-28 19:00 55.65097 48.73890 12242 ft 318 kts 278°
2026-04-28 19:00 55.65384 48.69958 12947 ft 321 kts 278°
2026-04-28 19:00 55.65667 48.66034 13641 ft 324 kts 278°
2026-04-28 19:00 55.65953 48.62044 14311 ft 327 kts 278°
2026-04-28 19:01 55.66242 48.57994 14971 ft 331 kts 279°
2026-04-28 19:01 55.66531 48.53928 15615 ft 334 kts 279°
2026-04-28 19:01 55.66821 48.49837 16242 ft 337 kts 279°
2026-04-28 19:01 55.67118 48.45620 16868 ft 341 kts 279°
2026-04-28 19:02 55.67413 48.41411 17473 ft 344 kts 279°
2026-04-28 19:02 55.67709 48.37163 18063 ft 347 kts 279°
2026-04-28 19:02 55.68004 48.32901 18635 ft 350 kts 278°
2026-04-28 19:02 55.68302 48.28563 19195 ft 353 kts 278°
2026-04-28 19:03 55.68597 48.24246 19740 ft 356 kts 278°
2026-04-28 19:03 55.68896 48.19850 20283 ft 359 kts 278°
2026-04-28 19:03 55.69199 48.15375 20821 ft 363 kts 278°
2026-04-28 19:03 55.69497 48.10966 21339 ft 366 kts 278°
2026-04-28 19:04 55.69801 48.06434 21863 ft 369 kts 278°
2026-04-28 19:04 55.70105 48.01877 22375 ft 372 kts 278°
2026-04-28 19:04 55.70408 47.97311 22872 ft 375 kts 279°
2026-04-28 19:04 55.70712 47.92699 23364 ft 378 kts 279°
2026-04-28 19:05 55.71015 47.88075 23844 ft 381 kts 279°
2026-04-28 19:05 55.71321 47.83382 24314 ft 384 kts 279°
2026-04-28 19:05 55.71628 47.78644 24773 ft 386 kts 279°
2026-04-28 19:05 55.71935 47.73882 25222 ft 389 kts 279°
2026-04-28 19:06 55.72241 47.69110 25656 ft 392 kts 279°
2026-04-28 19:06 55.72449 47.65843 25947 ft 394 kts 279°
2026-04-28 19:06 55.72857 47.59395 26504 ft 397 kts 279°
2026-04-28 19:06 55.73167 47.54458 26914 ft 400 kts 279°
2026-04-28 19:07 55.73476 47.49512 27312 ft 402 kts 279°
2026-04-28 19:07 55.73785 47.44534 27695 ft 405 kts 279°
2026-04-28 19:07 55.74089 47.39587 28057 ft 407 kts 279°
2026-04-28 19:07 55.74400 47.34501 28410 ft 410 kts 278°
2026-04-28 19:08 55.74704 47.29491 28741 ft 412 kts 278°
2026-04-28 19:08 55.75009 47.24414 29059 ft 414 kts 278°
2026-04-28 19:08 55.75315 47.19297 29371 ft 416 kts 278°
2026-04-28 19:08 55.75621 47.14149 29672 ft 418 kts 278°
2026-04-28 19:09 55.75927 47.08957 29965 ft 420 kts 278°
2026-04-28 19:09 55.76224 47.03887 30241 ft 422 kts 278°
2026-04-28 19:09 55.76520 46.98780 30502 ft 424 kts 278°
2026-04-28 19:09 55.76820 46.93563 30765 ft 426 kts 279°
2026-04-28 19:10 55.77114 46.88392 31021 ft 427 kts 279°
2026-04-28 19:10 55.77410 46.83175 31268 ft 428 kts 279°
2026-04-28 19:10 55.77708 46.77909 31516 ft 430 kts 280°
2026-04-28 19:10 55.78006 46.72630 31825 ft 429 kts 280°
2026-04-28 19:11 55.78297 46.67416 32161 ft 428 kts 280°
2026-04-28 19:11 55.78591 46.62111 32473 ft 427 kts 280°
2026-04-28 19:11 55.78878 46.56877 32752 ft 427 kts 280°
2026-04-28 19:11 55.79163 46.51619 33029 ft 426 kts 280°
2026-04-28 19:12 55.79328 46.48555 33197 ft 426 kts 280°
2026-04-28 19:12 55.79573 46.43341 33477 ft 426 kts 278°
2026-04-28 19:12 55.79752 46.38007 33744 ft 426 kts 278°
2026-04-28 19:12 55.79893 46.33373 33974 ft 426 kts 277°
2026-04-28 19:13 55.80019 46.29178 34156 ft 426 kts 277°